| time (UTC) | temp F | wind direction | speed MPH | gust MPH | rain 1hr in | rain 24hr in | rain mn in | humidity % | barometer mb |
| 20260505200944 | 54 | 314 | 7.0 | 12.0 | 0.00 | 0.00 | 0.00 | 71 | 1012.9 |
| 20260505200419 | 54 | 306 | 7.0 | 10.0 | 0.00 | 0.00 | 0.00 | 71 | 1012.9 |
| 20260505200049 | 53 | 300 | 6.0 | 10.0 | 0.00 | 0.00 | 0.00 | 71 | 1012.8 |
| 20260505195904 | 54 | 296 | 7.0 | 10.0 | 0.00 | 0.00 | 0.00 | 71 | 1012.9 |
| 20260505195336 | 54 | 297 | 6.0 | 9.0 | 0.00 | 0.00 | 0.00 | 71 | 1012.8 |
| 20260505194837 | 54 | 299 | 6.0 | 8.0 | 0.00 | 0.00 | 0.00 | 71 | 1012.8 |
| 20260505194548 | 54 | 301 | 5.0 | 8.0 | 0.00 | 0.00 | 0.00 | 71 | 1012.7 |
| 20260505194310 | 54 | 311 | 6.0 | 7.0 | 0.00 | 0.00 | 0.00 | 70 | 1012.7 |
| 20260505193802 | 54 | 301 | 5.0 | 8.0 | 0.00 | 0.00 | 0.00 | 70 | 1012.7 |
| 20260505193300 | 54 | 306 | 5.0 | 10.0 | 0.00 | 0.00 | 0.00 | 70 | 1012.6 |
| 20260505193046 | 54 | 304 | 5.0 | 10.0 | 0.00 | 0.00 | 0.00 | 70 | 1012.6 |
| 20260505192759 | 55 | 298 | 6.0 | 10.0 | 0.00 | 0.00 | 0.00 | 70 | 1012.6 |
| 20260505192516 | 55 | 289 | 6.0 | 11.0 | 0.00 | 0.00 | 0.00 | 70 | 1012.6 |
| 20260505191723 | 55 | 310 | 6.0 | 11.0 | 0.00 | 0.00 | 0.00 | 70 | 1012.6 |
| 20260505191608 | 54 | 314 | 5.0 | 10.0 | 0.00 | 0.00 | 0.00 | 70 | 1012.5 |
| 20260505191157 | 55 | 305 | 6.0 | 11.0 | 0.00 | 0.00 | 0.00 | 70 | 1012.6 |
| 20260505190850 | 55 | 294 | 5.0 | 11.0 | 0.00 | 0.00 | 0.00 | 70 | 1012.6 |
| 20260505190344 | 55 | 289 | 5.0 | 8.0 | 0.00 | 0.00 | 0.00 | 69 | 1012.6 |
| 20260505190036 | 55 | 316 | 4.0 | 8.0 | 0.00 | 0.00 | 0.00 | 69 | 1012.5 |
| 20260505185617 | 55 | 294 | 6.0 | 10.0 | 0.00 | 0.00 | 0.00 | 68 | 1012.5 |
| 20260505185114 | 56 | 294 | 6.0 | 10.0 | 0.00 | 0.00 | 0.00 | 68 | 1012.5 |
| 20260505184613 | 56 | 289 | 6.0 | 12.0 | 0.00 | 0.00 | 0.00 | 67 | 1012.5 |
| 20260505184546 | 55 | 305 | 7.0 | 10.0 | 0.00 | 0.00 | 0.00 | 67 | 1012.5 |
| 20260505184047 | 56 | 306 | 6.0 | 10.0 | 0.00 | 0.00 | 0.00 | 67 | 1012.5 |
| 20260505183518 | 56 | 303 | 6.0 | 12.0 | 0.00 | 0.00 | 0.00 | 66 | 1012.5 |
| 20260505183131 | 56 | 326 | 7.0 | 12.0 | 0.00 | 0.00 | 0.00 | 65 | 1012.4 |
| 20260505183019 | 56 | 297 | 6.0 | 10.0 | 0.00 | 0.00 | 0.00 | 65 | 1012.4 |
| 20260505182508 | 56 | 313 | 7.0 | 12.0 | 0.00 | 0.00 | 0.00 | 65 | 1012.4 |
| 20260505182011 | 56 | 297 | 6.0 | 12.0 | 0.00 | 0.00 | 0.00 | 65 | 1012.4 |
| 20260505181503 | 56 | 301 | 6.0 | 12.0 | 0.00 | 0.00 | 0.00 | 65 | 1012.4 |
| 20260505181442 | 57 | 329 | 7.0 | 12.0 | 0.00 | 0.00 | 0.00 | 65 | 1012.4 |
| 20260505180941 | 57 | 289 | 8.0 | 12.0 | 0.00 | 0.00 | 0.00 | 65 | 1012.4 |
| 20260505180415 | 57 | 314 | 7.0 | 15.0 | 0.00 | 0.00 | 0.00 | 65 | 1012.4 |
| 20260505180045 | 57 | 334 | 6.0 | 12.0 | 0.00 | 0.00 | 0.00 | 65 | 1012.4 |
| 20260505175854 | 57 | 321 | 8.0 | 15.0 | 0.00 | 0.00 | 0.00 | 65 | 1012.4 |
| 20260505175338 | 58 | 346 | 8.0 | 15.0 | 0.00 | 0.00 | 0.00 | 65 | 1012.4 |
| 20260505175104 | 58 | 307 | 8.0 | 15.0 | 0.00 | 0.00 | 0.00 | 64 | 1012.4 |
| 20260505174551 | 57 | 305 | 9.0 | 15.0 | 0.00 | 0.00 | 0.00 | 64 | 1012.3 |
| 20260505174322 | 58 | 287 | 7.0 | 12.0 | 0.00 | 0.00 | 0.00 | 64 | 1012.3 |
| 20260505173821 | 58 | 294 | 7.0 | 12.0 | 0.00 | 0.00 | 0.00 | 64 | 1012.3 |
| 20260505173252 | 59 | 311 | 9.0 | 14.0 | 0.00 | 0.00 | 0.00 | 62 | 1012.4 |
| 20260505173040 | 58 | 299 | 8.0 | 14.0 | 0.00 | 0.00 | 0.00 | 63 | 1012.3 |
| 20260505172731 | 59 | 319 | 8.0 | 14.0 | 0.00 | 0.00 | 0.00 | 62 | 1012.4 |
| 20260505172450 | 59 | 311 | 6.0 | 12.0 | 0.00 | 0.00 | 0.00 | 64 | 1012.4 |
| 20260505171729 | 60 | 308 | 6.0 | 12.0 | 0.00 | 0.00 | 0.00 | 63 | 1012.5 |
| 20260505171525 | 59 | 298 | 5.0 | 12.0 | 0.00 | 0.00 | 0.00 | 64 | 1012.3 |
| 20260505171229 | 60 | 297 | 6.0 | 12.0 | 0.00 | 0.00 | 0.00 | 63 | 1012.4 |
| 20260505170727 | 60 | 294 | 6.0 | 9.0 | 0.00 | 0.00 | 0.00 | 63 | 1012.5 |
| 20260505170243 | 60 | 328 | 6.0 | 10.0 | 0.00 | 0.00 | 0.00 | 62 | 1012.4 |
| 20260505170052 | 59 | 289 | 5.0 | 9.0 | 0.00 | 0.00 | 0.00 | 61 | 1012.3 |
| 20260505165702 | 60 | 298 | 6.0 | 10.0 | 0.00 | 0.00 | 0.00 | 61 | 1012.4 |
| 20260505165201 | 60 | 303 | 5.0 | 10.0 | 0.00 | 0.00 | 0.00 | 62 | 1012.5 |
| 20260505164634 | 60 | 293 | 5.0 | 13.0 | 0.00 | 0.00 | 0.00 | 63 | 1012.4 |
| 20260505164605 | 59 | 293 | 5.0 | 10.0 | 0.00 | 0.00 | 0.00 | 62 | 1012.4 |
| 20260505164111 | 60 | 285 | 7.0 | 13.0 | 0.00 | 0.00 | 0.00 | 62 | 1012.5 |
| 20260505163550 | 60 | 305 | 7.0 | 14.0 | 0.00 | 0.00 | 0.00 | 60 | 1012.5 |
| 20260505163032 | 60 | 279 | 7.0 | 14.0 | 0.00 | 0.00 | 0.00 | 62 | 1012.5 |
| 20260505163021 | 59 | 282 | 5.0 | 13.0 | 0.00 | 0.00 | 0.00 | 63 | 1012.4 |
| 20260505162516 | 60 | 297 | 8.0 | 14.0 | 0.00 | 0.00 | 0.00 | 62 | 1012.4 |
| 20260505161948 | 60 | 294 | 8.0 | 14.0 | 0.00 | 0.00 | 0.00 | 62 | 1012.4 |
| 20260505161511 | 60 | 293 | 7.0 | 12.0 | 0.00 | 0.00 | 0.00 | 61 | 1012.4 |
| 20260505161428 | 60 | 313 | 7.0 | 12.0 | 0.00 | 0.00 | 0.00 | 61 | 1012.5 |
| 20260505160905 | 60 | 310 | 6.0 | 12.0 | 0.00 | 0.00 | 0.00 | 61 | 1012.5 |
| 20260505160400 | 60 | 333 | 7.0 | 12.0 | 0.00 | 0.00 | 0.00 | 60 | 1012.5 |
| 20260505153006 | 61 | 297 | 7.0 | 15.0 | 0.00 | 0.00 | 0.00 | 58 | 1012.4 |
| 20260505152736 | 62 | 17 | 7.0 | 15.0 | 0.00 | 0.00 | 0.00 | 60 | 1012.5 |
| 20260505152235 | 62 | 325 | 7.0 | 14.0 | 0.00 | 0.00 | 0.00 | 61 | 1012.5 |
| 20260505152000 | 62 | 309 | 7.0 | 14.0 | 0.00 | 0.00 | 0.00 | 60 | 1012.4 |
| 20260505151603 | 61 | 303 | 7.0 | 14.0 | 0.00 | 0.00 | 0.00 | 60 | 1012.4 |
| 20260505151204 | 62 | 289 | 8.0 | 13.0 | 0.00 | 0.00 | 0.00 | 60 | 1012.5 |
| 20260505150631 | 62 | 313 | 8.0 | 13.0 | 0.00 | 0.00 | 0.00 | 59 | 1012.5 |
| 20260505150125 | 62 | 292 | 7.0 | 13.0 | 0.00 | 0.00 | 0.00 | 59 | 1012.6 |
| 20260505140409 | 62 | 304 | 8.0 | 13.0 | 0.00 | 0.00 | 0.00 | 60 | 1012.9 |
| 20260505130148 | 63 | 334 | 8.0 | 14.0 | 0.00 | 0.00 | 0.00 | 58 | 1013.1 |
| 20260505124613 | 64 | 316 | 7.0 | 13.0 | 0.00 | 0.00 | 0.00 | 58 | 1013.1 |
| 20260505124558 | 63 | 297 | 7.0 | 12.0 | 0.00 | 0.00 | 0.00 | 58 | 1013.0 |
| 20260505124046 | 65 | 306 | 7.0 | 13.0 | 0.00 | 0.00 | 0.00 | 55 | 1013.1 |
| 20260505123517 | 65 | 14 | 8.0 | 13.0 | 0.00 | 0.00 | 0.00 | 57 | 1013.0 |
| 20260505123056 | 65 | 297 | 8.0 | 14.0 | 0.00 | 0.00 | 0.00 | 58 | 1013.0 |
| 20260505123016 | 65 | 292 | 8.0 | 14.0 | 0.00 | 0.00 | 0.00 | 58 | 1013.1 |
| 20260505122447 | 65 | 327 | 7.0 | 14.0 | 0.00 | 0.00 | 0.00 | 58 | 1013.2 |
| 20260505121946 | 64 | 337 | 6.0 | 17.0 | 0.00 | 0.00 | 0.00 | 61 | 1013.1 |
| 20260505121547 | 63 | 314 | 3.0 | 12.0 | 0.00 | 0.00 | 0.00 | 61 | 1013.0 |
| 20260505121426 | 63 | 26 | 8.0 | 17.0 | 0.00 | 0.00 | 0.00 | 60 | 1013.2 |
| 20260505120927 | 63 | 280 | 9.0 | 17.0 | 0.00 | 0.00 | 0.00 | 61 | 1013.2 |
| 20260505120419 | 63 | 295 | 8.0 | 17.0 | 0.00 | 0.00 | 0.00 | 61 | 1013.1 |
| 20260505120128 | 63 | 302 | 7.0 | 16.0 | 0.00 | 0.00 | 0.00 | 60 | 1013.0 |
| 20260505115918 | 64 | 299 | 7.0 | 16.0 | 0.00 | 0.00 | 0.00 | 61 | 1013.1 |
| 20260505115349 | 63 | 284 | 7.0 | 17.0 | 0.00 | 0.00 | 0.00 | 62 | 1013.1 |
| 20260505114848 | 63 | 3 | 10.0 | 17.0 | 0.00 | 0.00 | 0.00 | 62 | 1013.2 |
| 20260505114502 | 62 | 333 | 9.0 | 17.0 | 0.00 | 0.00 | 0.00 | 62 | 1013.0 |
| 20260505114341 | 62 | 326 | 11.0 | 17.0 | 0.00 | 0.00 | 0.00 | 62 | 1013.0 |
| 20260505113840 | 63 | 296 | 10.0 | 17.0 | 0.00 | 0.00 | 0.00 | 60 | 1013.2 |
| 20260505113311 | 63 | 313 | 9.0 | 15.0 | 0.00 | 0.00 | 0.00 | 61 | 1013.2 |
| 20260505113049 | 63 | 298 | 9.0 | 15.0 | 0.00 | 0.00 | 0.00 | 62 | 1013.0 |
| 20260505112748 | 63 | 297 | 10.0 | 15.0 | 0.00 | 0.00 | 0.00 | 62 | 1013.2 |
| 20260505112244 | 63 | 301 | 8.0 | 15.0 | 0.00 | 0.00 | 0.00 | 64 | 1013.2 |
| 20260505111739 | 63 | 315 | 7.0 | 15.0 | 0.00 | 0.00 | 0.00 | 62 | 1013.3 |
| 20260505111502 | 62 | 330 | 6.0 | 15.0 | 0.00 | 0.00 | 0.00 | 63 | 1013.2 |
| 20260505111459 | 62 | 306 | 6.0 | 12.0 | 0.00 | 0.00 | 0.00 | 65 | 1013.3 |
| 20260505110735 | 62 | 346 | 6.0 | 15.0 | 0.00 | 0.00 | 0.00 | 64 | 1013.3 |
| 20260505110217 | 61 | 305 | 7.0 | 15.0 | 0.00 | 0.00 | 0.00 | 64 | 1013.3 |
| 20260505102041 | 61 | 10 | 5.0 | 11.0 | 0.00 | 0.00 | 0.00 | 70 | 1013.6 |
| 20260505101538 | 60 | 308 | 5.0 | 11.0 | 0.00 | 0.00 | 0.00 | 74 | 1013.6 |
| 20260505101526 | 60 | 294 | 5.0 | 11.0 | 0.00 | 0.00 | 0.00 | 74 | 1013.5 |
| 20260505101020 | 59 | 343 | 6.0 | 11.0 | 0.00 | 0.00 | 0.00 | 75 | 1013.6 |
| 20260505100454 | 59 | 292 | 5.0 | 10.0 | 0.00 | 0.00 | 0.00 | 74 | 1013.7 |
| 20260505100020 | 58 | 10 | 5.0 | 10.0 | 0.00 | 0.00 | 0.00 | 77 | 1013.7 |
| 20260505095931 | 58 | 9 | 4.0 | 10.0 | 0.00 | 0.00 | 0.00 | 77 | 1013.8 |
| 20260505095431 | 57 | 346 | 5.0 | 9.0 | 0.00 | 0.00 | 0.00 | 76 | 1014.0 |
| 20260505094929 | 57 | 346 | 5.0 | 11.0 | 0.00 | 0.00 | 0.00 | 75 | 1014.0 |
| 20260505094515 | 56 | 15 | 5.0 | 11.0 | 0.00 | 0.00 | 0.00 | 76 | 1013.7 |
| 20260505094426 | 57 | 17 | 4.0 | 9.0 | 0.00 | 0.00 | 0.00 | 76 | 1013.8 |
| 20260505094048 | 56 | 341 | 4.0 | 8.0 | 0.00 | 0.00 | 0.00 | 78 | 1014.0 |
| 20260505094037 | 56 | 26 | 4.0 | 8.0 | 0.00 | 0.00 | 0.00 | 78 | 1014.0 |
| 20260505093030 | 55 | 42 | 5.0 | 8.0 | 0.00 | 0.00 | 0.00 | 77 | 1013.8 |
| 20260505092835 | 56 | 23 | 4.0 | 8.0 | 0.00 | 0.00 | 0.00 | 77 | 1014.0 |
| 20260505092314 | 56 | 4 | 5.0 | 12.0 | 0.00 | 0.00 | 0.00 | 78 | 1014.0 |
| 20260505091813 | 55 | 346 | 6.0 | 12.0 | 0.00 | 0.00 | 0.00 | 79 | 1014.0 |
| 20260505091529 | 55 | 342 | 5.0 | 12.0 | 0.00 | 0.00 | 0.00 | 79 | 1013.8 |
| 20260505091248 | 55 | 5 | 5.0 | 12.0 | 0.00 | 0.00 | 0.00 | 79 | 1013.8 |
| 20260505091229 | 55 | 337 | 4.0 | 10.0 | 0.00 | 0.00 | 0.00 | 80 | 1013.8 |
| 20260505090239 | 55 | 10 | 4.0 | 10.0 | 0.00 | 0.00 | 0.00 | 80 | 1013.8 |
| 20260505090039 | 54 | 10 | 2.0 | 10.0 | 0.00 | 0.00 | 0.00 | 80 | 1013.7 |
| 20260505085739 | 55 | 292 | 5.0 | 11.0 | 0.00 | 0.00 | 0.00 | 80 | 1013.8 |
| 20260505085238 | 55 | 305 | 6.0 | 11.0 | 0.00 | 0.00 | 0.00 | 79 | 1014.0 |
| 20260505084737 | 55 | 327 | 6.0 | 11.0 | 0.00 | 0.00 | 0.00 | 79 | 1013.8 |
| 20260505084511 | 54 | 13 | 5.0 | 11.0 | 0.00 | 0.00 | 0.00 | 79 | 1013.7 |
| 20260505084236 | 55 | 326 | 5.0 | 11.0 | 0.00 | 0.00 | 0.00 | 79 | 1013.7 |
| 20260505083730 | 55 | 5 | 5.0 | 11.0 | 0.00 | 0.00 | 0.00 | 79 | 1013.8 |
| 20260505083435 | 56 | 296 | 6.0 | 11.0 | 0.00 | 0.00 | 0.00 | 79 | 1013.8 |
| 20260505083048 | 55 | 316 | 7.0 | 11.0 | 0.00 | 0.00 | 0.00 | 78 | 1013.7 |
| 20260505082646 | 56 | 338 | 5.0 | 9.0 | 0.00 | 0.00 | 0.00 | 79 | 1013.8 |
| 20260505082121 | 56 | 26 | 6.0 | 16.0 | 0.00 | 0.00 | 0.00 | 79 | 1013.8 |
| 20260505081622 | 56 | 337 | 7.0 | 16.0 | 0.00 | 0.00 | 0.00 | 78 | 1013.8 |
| 20260505081554 | 56 | 338 | 5.0 | 16.0 | 0.00 | 0.00 | 0.00 | 78 | 1013.7 |
| 20260505081107 | 56 | 325 | 7.0 | 16.0 | 0.00 | 0.00 | 0.00 | 78 | 1013.8 |
| 20260505080605 | 56 | 308 | 6.0 | 16.0 | 0.00 | 0.00 | 0.00 | 79 | 1013.8 |
| 20260505080059 | 56 | 10 | 6.0 | 11.0 | 0.00 | 0.00 | 0.00 | 79 | 1013.8 |
| 20260505080038 | 56 | 3 | 5.0 | 11.0 | 0.00 | 0.00 | 0.00 | 79 | 1013.7 |
| 20260505075802 | 56 | 10 | 6.0 | 11.0 | 0.00 | 0.00 | 0.00 | 79 | 1013.8 |
| 20260505075016 | 56 | 315 | 5.0 | 10.0 | 0.00 | 0.00 | 0.00 | 81 | 1013.8 |
| 20260505074526 | 55 | 29 | 4.0 | 10.0 | 0.00 | 0.00 | 0.00 | 81 | 1013.7 |
| 20260505074453 | 56 | 300 | 6.0 | 16.0 | 0.00 | 0.00 | 0.00 | 81 | 1013.8 |
| 20260505073955 | 56 | 293 | 7.0 | 16.0 | 0.00 | 0.00 | 0.00 | 82 | 1013.8 |
| 20260505073438 | 55 | 13 | 7.0 | 16.0 | 0.00 | 0.00 | 0.00 | 82 | 1013.8 |
| 20260505073110 | 55 | 337 | 7.0 | 16.0 | 0.00 | 0.00 | 0.00 | 83 | 1013.7 |
| 20260505072939 | 55 | 302 | 7.0 | 16.0 | 0.00 | 0.00 | 0.00 | 83 | 1013.8 |
| 20260505072704 | 55 | 336 | 6.0 | 12.0 | 0.00 | 0.00 | 0.00 | 84 | 1013.7 |
| 20260505071937 | 54 | 301 | 5.0 | 10.0 | 0.00 | 0.00 | 0.00 | 85 | 1013.7 |
| 20260505071515 | 54 | 25 | 4.0 | 10.0 | 0.00 | 0.00 | 0.00 | 86 | 1013.8 |
| 20260505071437 | 54 | 346 | 5.0 | 10.0 | 0.00 | 0.00 | 0.00 | 86 | 1013.8 |
| 20260505070934 | 54 | 316 | 5.0 | 10.0 | 0.00 | 0.00 | 0.00 | 87 | 1013.8 |
| 20260505070441 | 53 | 294 | 5.0 | 10.0 | 0.00 | 0.00 | 0.00 | 87 | 1014.0 |
| 20260505070058 | 52 | 351 | 5.0 | 9.0 | 0.00 | 0.00 | 0.00 | 88 | 1013.9 |
| 20260505065928 | 53 | 255 | 5.0 | 9.0 | 0.00 | 0.00 | 0.00 | 88 | 1014.0 |
| 20260505065425 | 52 | 313 | 4.0 | 9.0 | 0.00 | 0.00 | 0.00 | 88 | 1014.0 |
| 20260505064921 | 52 | 338 | 4.0 | 9.0 | 0.00 | 0.00 | 0.00 | 88 | 1014.0 |
| 20260505064626 | 52 | 350 | 4.0 | 9.0 | 0.00 | 0.00 | 0.00 | 89 | 1014.0 |
| 20260505064538 | 52 | 360 | 4.0 | 7.0 | 0.00 | 0.00 | 0.00 | 89 | 1013.8 |
| 20260505063858 | 52 | 350 | 4.0 | 9.0 | 0.00 | 0.00 | 0.00 | 89 | 1013.8 |
| 20260505063355 | 52 | 289 | 4.0 | 9.0 | 0.00 | 0.00 | 0.00 | 90 | 1014.0 |
| 20260505063022 | 51 | 318 | 4.0 | 9.0 | 0.00 | 0.00 | 0.00 | 90 | 1013.7 |
| 20260505062831 | 51 | 302 | 3.0 | 7.0 | 0.00 | 0.00 | 0.00 | 90 | 1013.8 |
| 20260505062312 | 51 | 300 | 3.0 | 7.0 | 0.00 | 0.00 | 0.00 | 90 | 1013.8 |
| 20260505061812 | 51 | 300 | 4.0 | 7.0 | 0.00 | 0.00 | 0.00 | 90 | 1013.7 |
| 20260505061609 | 51 | 299 | 3.0 | 7.0 | 0.00 | 0.00 | 0.00 | 90 | 1013.7 |
| 20260505061314 | 51 | 299 | 5.0 | 10.0 | 0.00 | 0.00 | 0.00 | 90 | 1013.8 |
| 20260505060746 | 51 | 316 | 5.0 | 10.0 | 0.00 | 0.00 | 0.00 | 90 | 1013.7 |
| 20260505060509 | 51 | 316 | 7.0 | 10.0 | 0.00 | 0.00 | 0.00 | 90 | 1013.7 |
| 20260505060006 | 50 | 323 | 6.0 | 10.0 | 0.00 | 0.00 | 0.00 | 90 | 1013.6 |
| 20260505055719 | 51 | 308 | 7.0 | 10.0 | 0.00 | 0.00 | 0.00 | 90 | 1013.6 |
| 20260505055216 | 51 | 319 | 6.0 | 9.0 | 0.00 | 0.00 | 0.00 | 91 | 1013.7 |
| 20260505054713 | 51 | 301 | 6.0 | 8.0 | 0.00 | 0.00 | 0.00 | 90 | 1013.7 |
| 20260505054611 | 50 | 290 | 5.0 | 8.0 | 0.00 | 0.00 | 0.00 | 91 | 1013.7 |
| 20260505054210 | 51 | 286 | 6.0 | 8.0 | 0.00 | 0.00 | 0.00 | 91 | 1013.8 |
| 20260505053709 | 51 | 306 | 6.0 | 8.0 | 0.00 | 0.00 | 0.00 | 91 | 1013.7 |
| 20260505053143 | 51 | 305 | 6.0 | 10.0 | 0.00 | 0.00 | 0.00 | 91 | 1013.7 |
| 20260505053009 | 50 | 303 | 6.0 | 8.0 | 0.00 | 0.00 | 0.00 | 91 | 1013.6 |
| 20260505052622 | 51 | 306 | 6.0 | 10.0 | 0.00 | 0.00 | 0.00 | 91 | 1013.7 |
| 20260505052123 | 51 | 292 | 7.0 | 10.0 | 0.00 | 0.00 | 0.00 | 91 | 1013.7 |
| 20260505051619 | 51 | 302 | 7.0 | 10.0 | 0.00 | 0.00 | 0.00 | 91 | 1013.6 |
| 20260505051505 | 50 | 304 | 7.0 | 10.0 | 0.00 | 0.00 | 0.00 | 91 | 1013.5 |
| 20260505051110 | 51 | 307 | 6.0 | 11.0 | 0.00 | 0.00 | 0.00 | 91 | 1013.5 |
| 20260505050608 | 51 | 301 | 7.0 | 11.0 | 0.00 | 0.00 | 0.00 | 91 | 1013.5 |
| 20260505050110 | 50 | 306 | 7.0 | 11.0 | 0.00 | 0.00 | 0.00 | 91 | 1013.4 |
| 20260505050104 | 51 | 303 | 7.0 | 11.0 | 0.00 | 0.00 | 0.00 | 91 | 1013.5 |
| 20260505041554 | 50 | 305 | 0.0 | 0.0 | 0.00 | 0.00 | 0.00 | 92 | 1013.4 |
| 20260505041502 | 50 | 305 | 0.0 | 7.0 | 0.00 | 0.00 | 0.00 | 92 | 1013.5 |
| 20260505040946 | 50 | 304 | 2.0 | 7.0 | 0.00 | 0.00 | 0.00 | 92 | 1013.5 |
| 20260505040712 | 50 | 303 | 4.0 | 7.0 | 0.00 | 0.00 | 0.00 | 92 | 1013.5 |
| 20260505040030 | 50 | 304 | 4.0 | 7.0 | 0.00 | 0.00 | 0.00 | 91 | 1013.5 |
| 20260505035949 | 50 | 304 | 4.0 | 6.0 | 0.00 | 0.00 | 0.00 | 91 | 1013.6 |
| 20260505035428 | 50 | 303 | 3.0 | 5.0 | 0.00 | 0.00 | 0.00 | 91 | 1013.5 |
| 20260505034928 | 50 | 303 | 3.0 | 7.0 | 0.00 | 0.00 | 0.00 | 91 | 1013.5 |
| 20260505034544 | 50 | 303 | 2.0 | 5.0 | 0.00 | 0.00 | 0.00 | 91 | 1013.5 |
| 20260505034426 | 50 | 303 | 4.0 | 7.0 | 0.00 | 0.00 | 0.00 | 91 | 1013.5 |
| 20260505033926 | 50 | 303 | 5.0 | 7.0 | 0.00 | 0.00 | 0.00 | 91 | 1013.5 |
| 20260505033424 | 50 | 303 | 6.0 | 7.0 | 0.00 | 0.00 | 0.00 | 91 | 1013.5 |
| 20260505033008 | 50 | 303 | 5.0 | 7.0 | 0.00 | 0.00 | 0.00 | 91 | 1013.4 |
| 20260505032939 | 50 | 302 | 6.0 | 9.0 | 0.00 | 0.00 | 0.00 | 91 | 1013.5 |
| 20260505032401 | 50 | 301 | 6.0 | 9.0 | 0.00 | 0.00 | 0.00 | 91 | 1013.5 |
| 20260505032053 | 51 | 307 | 6.0 | 9.0 | 0.00 | 0.00 | 0.00 | 91 | 1013.5 |
| 20260505031604 | 50 | 306 | 5.0 | 9.0 | 0.00 | 0.00 | 0.00 | 91 | 1013.5 |
| 20260505031546 | 51 | 305 | 7.0 | 9.0 | 0.00 | 0.00 | 0.00 | 91 | 1013.5 |
| 20260505030824 | 51 | 302 | 7.0 | 9.0 | 0.00 | 0.00 | 0.00 | 91 | 1013.4 |
| 20260505030256 | 51 | 297 | 6.0 | 9.0 | 0.00 | 0.00 | 0.00 | 90 | 1013.5 |
| 20260505030056 | 50 | 304 | 6.0 | 9.0 | 0.00 | 0.00 | 0.00 | 90 | 1013.4 |
| 20260505025756 | 51 | 303 | 6.0 | 9.0 | 0.00 | 0.00 | 0.00 | 90 | 1013.5 |
| 20260505025226 | 51 | 313 | 6.0 | 8.0 | 0.00 | 0.00 | 0.00 | 90 | 1013.5 |
| 20260505024715 | 51 | 306 | 6.0 | 8.0 | 0.00 | 0.00 | 0.00 | 90 | 1013.5 |
| 20260505024538 | 51 | 298 | 6.0 | 8.0 | 0.00 | 0.00 | 0.00 | 90 | 1013.4 |
| 20260505024216 | 51 | 297 | 6.0 | 9.0 | 0.00 | 0.00 | 0.00 | 90 | 1013.5 |
| 20260505023718 | 51 | 294 | 6.0 | 9.0 | 0.00 | 0.00 | 0.00 | 90 | 1013.5 |
| 20260505023150 | 51 | 306 | 6.0 | 9.0 | 0.00 | 0.00 | 0.00 | 89 | 1013.5 |
| 20260505023132 | 51 | 308 | 6.0 | 9.0 | 0.00 | 0.00 | 0.00 | 90 | 1013.6 |
| 20260505023121 | 51 | 289 | 5.0 | 9.0 | 0.00 | 0.00 | 0.00 | 89 | 1013.4 |
| 20260505022145 | 52 | 305 | 5.0 | 8.0 | 0.00 | 0.00 | 0.00 | 89 | 1013.6 |
| 20260505021619 | 52 | 303 | 5.0 | 8.0 | 0.00 | 0.00 | 0.00 | 89 | 1013.6 |
| 20260505021549 | 51 | 303 | 4.0 | 8.0 | 0.00 | 0.00 | 0.00 | 89 | 1013.5 |
| 20260505021048 | 52 | 303 | 5.0 | 8.0 | 0.00 | 0.00 | 0.00 | 89 | 1013.6 |
| 20260505020547 | 52 | 301 | 5.0 | 8.0 | 0.00 | 0.00 | 0.00 | 90 | 1013.7 |
| 20260505020315 | 52 | 294 | 3.0 | 6.0 | 0.00 | 0.00 | 0.00 | 89 | 1013.7 |
| 20260505020027 | 52 | 294 | 4.0 | 6.0 | 0.00 | 0.00 | 0.00 | 89 | 1013.6 |
| 20260505015517 | 52 | 304 | 4.0 | 7.0 | 0.00 | 0.00 | 0.00 | 89 | 1013.8 |
| 20260505014951 | 52 | 304 | 4.0 | 7.0 | 0.00 | 0.00 | 0.00 | 89 | 1013.7 |
| 20260505014504 | 52 | 304 | 3.0 | 7.0 | 0.00 | 0.00 | 0.00 | 89 | 1013.7 |
| 20260505014423 | 53 | 304 | 4.0 | 7.0 | 0.00 | 0.00 | 0.00 | 89 | 1013.8 |
| 20260505013855 | 53 | 303 | 4.0 | 7.0 | 0.00 | 0.00 | 0.00 | 89 | 1013.8 |
| 20260505013353 | 53 | 305 | 4.0 | 5.0 | 0.00 | 0.00 | 0.00 | 89 | 1014.0 |
| 20260505013113 | 52 | 310 | 3.0 | 5.0 | 0.00 | 0.00 | 0.00 | 89 | 1013.9 |
| 20260505012828 | 53 | 310 | 3.0 | 5.0 | 0.00 | 0.00 | 0.00 | 89 | 1014.0 |
| 20260505012328 | 53 | 310 | 3.0 | 6.0 | 0.00 | 0.00 | 0.00 | 89 | 1014.0 |
| 20260505011802 | 53 | 310 | 2.0 | 6.0 | 0.00 | 0.00 | 0.00 | 89 | 1014.1 |
| 20260505011604 | 53 | 310 | 2.0 | 6.0 | 0.00 | 0.00 | 0.00 | 89 | 1013.9 |
| 20260505011305 | 53 | 310 | 3.0 | 7.0 | 0.00 | 0.00 | 0.00 | 89 | 1014.1 |
| 20260505011234 | 53 | 310 | 3.0 | 7.0 | 0.00 | 0.00 | 0.00 | 89 | 1014.1 |
| 20260505010520 | 53 | 308 | 4.0 | 9.0 | 0.00 | 0.00 | 0.00 | 89 | 1014.1 |
| 20260505010010 | 53 | 308 | 3.0 | 7.0 | 0.00 | 0.00 | 0.00 | 89 | 1014.0 |
| 20260505005746 | 53 | 307 | 4.0 | 9.0 | 0.00 | 0.00 | 0.00 | 89 | 1014.1 |
| 20260505005247 | 53 | 259 | 5.0 | 9.0 | 0.00 | 0.00 | 0.00 | 89 | 1014.2 |
| 20260505004721 | 53 | 308 | 5.0 | 9.0 | 0.00 | 0.00 | 0.00 | 89 | 1014.2 |
| 20260505004554 | 53 | 308 | 6.0 | 9.0 | 0.00 | 0.00 | 0.00 | 89 | 1014.1 |
| 20260505004207 | 53 | 310 | 4.0 | 9.0 | 0.00 | 0.00 | 0.00 | 89 | 1014.3 |
| 20260505003700 | 53 | 310 | 5.0 | 9.0 | 0.00 | 0.00 | 0.00 | 89 | 1014.3 |
| 20260505003201 | 53 | 304 | 6.0 | 11.0 | 0.00 | 0.00 | 0.00 | 90 | 1014.2 |
| 20260505003039 | 53 | 307 | 4.0 | 11.0 | 0.00 | 0.00 | 0.00 | 90 | 1014.1 |
| 20260505002927 | 53 | 293 | 6.0 | 11.0 | 0.00 | 0.00 | 0.00 | 90 | 1014.1 |
| 20260505002201 | 53 | 304 | 6.0 | 11.0 | 0.00 | 0.00 | 0.00 | 90 | 1014.2 |
| 20260505001637 | 53 | 303 | 6.0 | 11.0 | 0.00 | 0.00 | 0.00 | 90 | 1014.3 |
| 20260505001517 | 53 | 297 | 6.0 | 11.0 | 0.00 | 0.00 | 0.00 | 90 | 1014.2 |
| 20260505001116 | 53 | 301 | 6.0 | 11.0 | 0.00 | 0.00 | 0.00 | 90 | 1014.4 |
| 20260505000612 | 53 | 306 | 7.0 | 11.0 | 0.00 | 0.00 | 0.00 | 91 | 1014.3 |
| 20260505000111 | 53 | 304 | 7.0 | 9.0 | 0.00 | 0.00 | 0.00 | 91 | 1014.3 |
| 20260505000034 | 53 | 309 | 7.0 | 9.0 | 0.00 | 0.00 | 0.00 | 91 | 1014.2 |
| 20260504235831 | 53 | 301 | 5.0 | 9.0 | 0.00 | 0.00 | 0.00 | 91 | 1014.4 |
| 20260504235109 | 53 | 285 | 4.0 | 7.0 | 0.00 | 0.00 | 0.00 | 91 | 1014.5 |
| 20260504234608 | 53 | 299 | 4.0 | 6.0 | 0.00 | 0.00 | 0.00 | 91 | 1014.5 |
| 20260504234551 | 53 | 299 | 3.0 | 7.0 | 0.00 | 0.00 | 0.00 | 91 | 1014.4 |
| 20260504234106 | 53 | 299 | 4.0 | 7.0 | 0.00 | 0.00 | 0.00 | 91 | 1014.5 |
| 20260504233556 | 53 | 292 | 3.0 | 6.0 | 0.00 | 0.00 | 0.00 | 91 | 1014.6 |
| 20260504233052 | 53 | 291 | 1.0 | 4.0 | 0.00 | 0.00 | 0.00 | 91 | 1014.5 |
| 20260504233037 | 52 | 291 | 2.0 | 4.0 | 0.00 | 0.00 | 0.00 | 91 | 1014.3 |
| 20260504232539 | 53 | 291 | 1.0 | 4.0 | 0.00 | 0.00 | 0.00 | 91 | 1014.5 |
| 20260504232011 | 53 | 291 | 0.0 | 4.0 | 0.00 | 0.00 | 0.00 | 91 | 1014.5 |
| 20260504231541 | 52 | 291 | 0.0 | 4.0 | 0.00 | 0.00 | 0.00 | 91 | 1014.4 |
| 20260504231509 | 53 | 291 | 1.0 | 7.0 | 0.00 | 0.00 | 0.00 | 91 | 1014.5 |
| 20260504230942 | 53 | 291 | 3.0 | 7.0 | 0.00 | 0.00 | 0.00 | 91 | 1014.6 |
| 20260504230416 | 53 | 290 | 3.0 | 7.0 | 0.00 | 0.00 | 0.00 | 91 | 1014.5 |
| 20260504230020 | 52 | 287 | 3.0 | 7.0 | 0.00 | 0.00 | 0.00 | 90 | 1014.2 |
| 20260504225906 | 53 | 287 | 2.0 | 7.0 | 0.00 | 0.00 | 0.00 | 90 | 1014.4 |
| 20260504225406 | 53 | 311 | 0.0 | 9.0 | 0.00 | 0.00 | 0.00 | 90 | 1014.4 |
| 20260504224840 | 53 | 311 | 2.0 | 9.0 | 0.00 | 0.00 | 0.00 | 90 | 1014.3 |
| 20260504224550 | 53 | 310 | 0.0 | 7.0 | 0.00 | 0.00 | 0.00 | 91 | 1014.2 |
| 20260504224311 | 53 | 310 | 4.0 | 9.0 | 0.00 | 0.00 | 0.00 | 91 | 1014.3 |
| 20260504223806 | 53 | 307 | 5.0 | 9.0 | 0.00 | 0.00 | 0.00 | 91 | 1014.3 |
| 20260504223243 | 53 | 309 | 5.0 | 9.0 | 0.00 | 0.00 | 0.00 | 91 | 1014.3 |
| 20260504223106 | 53 | 306 | 4.0 | 9.0 | 0.00 | 0.00 | 0.00 | 91 | 1014.2 |
| 20260504222712 | 53 | 285 | 6.0 | 9.0 | 0.00 | 0.00 | 0.00 | 91 | 1014.4 |
| 20260504222211 | 53 | 306 | 6.0 | 9.0 | 0.00 | 0.00 | 0.00 | 91 | 1014.4 |
| 20260504221642 | 53 | 306 | 5.0 | 9.0 | 0.00 | 0.00 | 0.00 | 90 | 1014.4 |
| 20260504221600 | 52 | 305 | 6.0 | 9.0 | 0.00 | 0.00 | 0.00 | 90 | 1014.3 |
| 20260504221141 | 53 | 303 | 3.0 | 7.0 | 0.00 | 0.00 | 0.00 | 90 | 1014.4 |
| 20260504220620 | 53 | 304 | 1.0 | 6.0 | 0.00 | 0.00 | 0.00 | 90 | 1014.4 |
| 20260504220059 | 52 | 303 | 1.0 | 5.0 | 0.00 | 0.00 | 0.00 | 90 | 1014.5 |
| 20260504220008 | 52 | 303 | 1.0 | 5.0 | 0.00 | 0.00 | 0.00 | 90 | 1014.4 |
| 20260504215600 | 52 | 302 | 0.0 | 1.0 | 0.00 | 0.00 | 0.00 | 89 | 1014.6 |
| 20260504215055 | 53 | 302 | 0.0 | 1.0 | 0.00 | 0.00 | 0.00 | 89 | 1014.7 |
| 20260504214559 | 53 | 302 | 0.0 | 4.0 | 0.00 | 0.00 | 0.00 | 89 | 1014.7 |
| 20260504214532 | 52 | 302 | 0.0 | 1.0 | 0.00 | 0.00 | 0.00 | 89 | 1014.5 |
| 20260504214308 | 53 | 302 | 0.0 | 4.0 | 0.00 | 0.00 | 0.00 | 89 | 1014.7 |
| 20260504213549 | 53 | 302 | 1.0 | 6.0 | 0.00 | 0.00 | 0.00 | 89 | 1014.6 |
| 20260504213044 | 53 | 302 | 0.0 | 5.0 | 0.00 | 0.00 | 0.00 | 89 | 1014.4 |
| 20260504213020 | 53 | 302 | 2.0 | 6.0 | 0.00 | 0.00 | 0.00 | 89 | 1014.6 |
| 20260504212519 | 54 | 302 | 3.0 | 6.0 | 0.00 | 0.00 | 0.00 | 89 | 1014.6 |
| 20260504212011 | 54 | 301 | 3.0 | 6.0 | 0.00 | 0.00 | 0.00 | 89 | 1014.6 |
| 20260504211551 | 53 | 299 | 3.0 | 7.0 | 0.00 | 0.00 | 0.00 | 89 | 1014.4 |
| 20260504211512 | 54 | 299 | 3.0 | 7.0 | 0.00 | 0.00 | 0.00 | 89 | 1014.5 |
| 20260504210936 | 54 | 299 | 1.0 | 7.0 | 0.00 | 0.00 | 0.00 | 89 | 1014.5 |
| 20260504210436 | 54 | 296 | 0.0 | 1.0 | 0.00 | 0.00 | 0.00 | 89 | 1014.5 |
| 20260504210036 | 53 | 295 | 0.0 | 0.0 | 0.00 | 0.00 | 0.00 | 89 | 1014.4 |
| 20260504205906 | 54 | 295 | 0.0 | 1.0 | 0.00 | 0.00 | 0.00 | 89 | 1014.6 |
| 20260504205404 | 54 | 294 | 0.0 | 1.0 | 0.00 | 0.00 | 0.00 | 88 | 1014.6 |
| 20260504204848 | 54 | 294 | 0.0 | 1.0 | 0.00 | 0.00 | 0.00 | 88 | 1014.6 |
| 20260504204539 | 53 | 294 | 0.0 | 0.0 | 0.00 | 0.00 | 0.00 | 88 | 1014.5 |
| 20260504204345 | 54 | 294 | 0.0 | 0.0 | 0.00 | 0.00 | 0.00 | 88 | 1014.6 |
| 20260504203820 | 54 | 294 | 0.0 | 0.0 | 0.00 | 0.00 | 0.00 | 87 | 1014.6 |
| 20260504203312 | 54 | 294 | 0.0 | 0.0 | 0.00 | 0.00 | 0.00 | 87 | 1014.6 |
| 20260504203005 | 54 | 294 | 0.0 | 0.0 | 0.00 | 0.00 | 0.00 | 87 | 1014.4 |
| 20260504202811 | 54 | 294 | 0.0 | 1.0 | 0.00 | 0.00 | 0.00 | 87 | 1014.6 |
| 20260504202244 | 55 | 294 | 0.0 | 1.0 | 0.00 | 0.00 | 0.00 | 87 | 1014.6 |
| 20260504201714 | 55 | 294 | 0.0 | 1.0 | 0.00 | 0.00 | 0.00 | 87 | 1014.5 |
| 20260504201514 | 54 | 294 | 0.0 | 1.0 | 0.00 | 0.00 | 0.00 | 86 | 1014.4 |
| 20260504201435 | 55 | 293 | 0.0 | 1.0 | 0.00 | 0.00 | 0.00 | 86 | 1014.4 |